Regional Weather Roundup
Issued by NWS

Home | Current Version | Previous Version | Text Only | Print | Product List | Glossary Off
Versions: 1 2 3 4 5 6 7 8 9 10 11 12 13 14 15 16 17 18 19 20 21 22 23 24 25 26 27 28 29 30 31 32 33 34 35 36 37 38 39 40 41 42 43 44 45 46 47 48 49 50

000
ASUS43 KFSD 270102
RWRSD

WEATHER ROUNDUP FOR SOUTH DAKOTA
NATIONAL WEATHER SERVICE SIOUX FALLS SD
800 PM CDT THU MAR 26 2015

NOTE: "FAIR" INDICATES FEW OR NO CLOUDS BELOW 12,000 FEET WITH NO
SIGNIFICANT WEATHER AND/OR OBSTRUCTIONS TO VISIBILITY.


SDZ001>005-009-010-012>017-270200-
NORTHWEST AND NORTH CENTRAL SOUTH DAKOTA

CITY           SKY/WX    TMP DP  RH WIND       PRES   REMARKS
BUFFALO          N/A     41  31  67 E13       30.07S
FAITH            N/A     35  27  72 E8        30.17S WCI  29
MOBRIDGE       CLOUDY    37  21  52 NE6       30.19R
$$

SDZ012>016-024>037-041>051-057-063-072>074-270200-
SOUTHWEST AND SOUTH CENTRAL SOUTH DAKOTA

CITY           SKY/WX    TMP DP  RH WIND       PRES   REMARKS
RAPID CTY ARPT CLOUDY    43  27  53 E9        30.13R
PIERRE         CLOUDY    36  31  82 CALM      30.21S
CUSTER         MOCLDY    41  27  57 N5        30.11R
ELLSWORTH AFB  CLOUDY    43  27  52 E8        30.13R
PHILIP         MOCLDY    36  26  67 E7        30.19S
PINE RIDGE     CLOUDY    43  27  53 E8        30.14R
SPEARFISH      FAIR      45  32  61 W7        30.12R
WINNER         CLOUDY    35  29  78 N5        30.22R
$$

SDZ004>011-016>023-039-040-270200-
NORTHEAST SOUTH DAKOTA

CITY           SKY/WX    TMP DP  RH WIND       PRES   REMARKS
ABERDEEN       CLEAR     32  14  47 NE12      30.25R WCI  23
WATERTOWN      CLEAR     27  14  58 N12       30.19S WCI  17
SISSETON         N/A     29  15  56 N14       30.24R WCI  18
$$

SDZ017-020-022-023-036>040-048>070-270200-
SOUTHEAST SOUTH DAKOTA

CITY           SKY/WX    TMP DP  RH WIND       PRES   REMARKS
SIOUX FALLS    PTCLDY    32  18  56 N12       30.18R WCI  23
HURON          CLEAR     32  15  49 N8        30.22R WCI  25
MITCHELL       PTCLDY    35  20  54 N13       30.22R WCI  26
YANKTON        CLOUDY    36  27  69 NW8       30.20R
$$

ABBREVIATIONS USED IN REMARKS
   TC - TEMPERATURE IN CELSIUS
  WCI - WIND CHILL INDEX
   HX - HEAT INDEX
  VSB - VISIBILITY




USA.gov is the U.S. government's official web portal to all federal, state and local government web resources and services.